Location: Blackie
(50.6050°N, 113.6230°W)
Time: 07:26:54
(UTC+00:00)

N. Korean satellite - Pass Details

Date: 05 December 2021
Orbit: 446 x 491 km, 97.3° (Epoch: 18 January)

Event Time Altitude Azimuth Distance (km) Brightness Sun altitude
Rises 00:45:58 0° 199° (SSW) 2,529 10.9 -11.2°
Reaches altitude 10° 00:48:25 10° 217° (SW) 1,646 10.2 -11.6°
Maximum altitude 00:51:07 21° 267° (W) 1,133 9.4 -12.0°
Drops below altitude 10° 00:53:49 10° 317° (NW) 1,635 9.5 -12.4°
Sets 00:56:15 0° 335° (NNW) 2,508 10.3 -12.7°
